Regional Weather Roundup
Issued by NWS

Home | Current Version | Previous Version | Text Only | Print | Product List | Glossary On
Versions: 1 2 3 4 5 6 7 8 9 10 11 12 13 14 15 16 17 18 19 20 21 22 23 24 25 26 27 28 29 30 31 32 33 34 35 36 37 38 39 40 41 42 43 44 45 46 47 48 49 50
000
ASUS43 KMKX 272321
RWRWI

WISCONSIN REGIONAL WEATHER ROUNDUP
NATIONAL WEATHER SERVICE MILWAUKEE/SULLIVAN WI
600 PM CDT SUN MAY 27 2018

NOTE: "FAIR" INDICATES FEW OR NO CLOUDS BELOW 12,000 FEET WITH NO
SIGNIFICANT WEATHER AND/OR OBSTRUCTIONS TO VISIBILITY.

WIZ001-002-006>008-014>016-023>028-280000-
NORTHWEST WISCONSIN

CITY           SKY/WX    TMP DP  RH WIND       PRES   REMARKS
SUPERIOR ARPT  FAIR      64  53  69 NE5       29.84R
ASHLAND        FAIR      83  62  49 NE9       29.83R HX  84
HAYWARD        FAIR      84  62  47 SW9       29.85R HX  85
SIREN          FAIR      82  60  46 S5        29.83F HX  83
CUMBERLAND     FAIR      82  57  42 S5        29.85S HX  82
RICE LAKE      FAIR      87  55  33 SW3       29.86S HX  85
CHETEK         FAIR      87  60  39 SW3       29.84S HX  86
LADYSMITH      FAIR      85  63  47 CALM      29.87R HAZE    HX  86
EAU CLAIRE     FAIR      91  59  33 SW8       29.82S HX  90
MENOMONIE      FAIR      88  59  38 CALM      29.83S HX  87
NEW RICHMOND   FAIR      85  59  40 CALM      29.84S HX  84
OSCEOLA        FAIR      87  57  35 S7        29.86S HX  86
$$

WIZ003>005-009-010-017-018-280000-
NORTH CENTRAL WISCONSIN

CITY           SKY/WX    TMP DP  RH WIND       PRES   REMARKS
MANITOWISH WTR FAIR      86  56  35 NW3       29.88R HX  85
ARBOR VITAE    FAIR      86  54  32 N3        29.88R HX  84
WOODRUFF       FAIR      86  54  32 N3        29.88R HX  84
RHINELANDER    FAIR      91  52  26 CALM      29.87R HX  88
EAGLE RIVER    FAIR      84  47  27 CALM      29.87R HX  82
LAND O LAKES   FAIR      86  46  25 NW5       29.90R HX  83
PHILLIPS       FAIR      85  57  38 CALM      29.86R HX  84
TOMAHAWK       FAIR      87  49  27 W5        29.87R HX  84
MEDFORD        FAIR      88  51  28 SW3       29.86R HX  85
MERRILL        FAIR      89  54  29 CALM      29.85S HX  87
$$

WIZ029-030-035-036-043>047-280000-
CENTRAL WISCONSIN

CITY           SKY/WX    TMP DP  RH WIND       PRES   REMARKS
WAUSAU         FAIR      91  51  25 E6        29.82R HX  88
MOSINEE        MOSUNNY   88  55  33 VRB3      29.85S HX  86
MARSHFIELD     FAIR      90  58  33 SW7       29.84R HX  89
STEVENS POINT  FAIR      89  52  27 CALM      29.84R HX  86
WAUPACA        FAIR      97  41  14 E3        29.81F HX  93
WAUTOMA        FAIR      90  55  30 CALM      29.83F HX  88
WISC RAPIDS    FAIR      94  51  23 SW7       29.84F HX  91
CAMP DOUGLAS   FAIR      87  69  54 SE6       29.83F HX  91
$$

WIZ011>013-019>022-031-037>040-048>050-280000-
NORTHEAST WISCONSIN

CITY           SKY/WX    TMP DP  RH WIND       PRES   REMARKS
ANTIGO         FAIR      87  54  31 SW6       29.86R HX  85
SHAWANO        FAIR      91  58  32 CALM      29.80F HX  89
OCONTO         FAIR      82  61  48 SE9       29.82F HX  82
STURGEON BAY   FAIR      74  61  63 S9        29.86S
GREEN BAY      FAIR      86  64  47 SE14      29.82F HX  87
MANITOWOC      NOT AVBL
APPLETON       PTSUNNY   88  48  25 N7        29.83F HX  85
CLINTONVILLE   FAIR      87  55  33 SE6       29.79F HX  86
OSHKOSH        FAIR      91  59  33 NW6       29.83F HX  90
$$

WIZ032>034-041-042-053>061-280000-
SOUTHWEST WISCONSIN

CITY           SKY/WX    TMP DP  RH WIND       PRES   REMARKS
LA CROSSE      FAIR      94  58  29 S5        29.82S HX  93
SPARTA         FAIR      90  58  33 CALM      29.85S HX  89
VIROQUA        FAIR      91  52  26 SE5       29.88S HX  89
BOSCOBEL       FAIR      95  61  32 CALM      29.83F HX  95
PRAIRIE DU CHI FAIR      93  56  29 E7        29.83F HX  91
PLATTEVILLE    FAIR      91  61  36 N5        29.87R HX  91
$$

WIZ056-057-062-063-064-067-068-280000-
SOUTH CENTRAL WISCONSIN

CITY           SKY/WX    TMP DP  RH WIND       PRES   REMARKS
REEDSBURG      FAIR      92  51  25 CALM      29.84S HX  89
BARABOO/DELLS  FAIR      94  45  18 E8        29.86S HX  90
LONE ROCK      FAIR      95  55  26 VRB6      29.83S HX  93
MINERAL POINT  FAIR      95  54  24 NE7       29.89R HX  93
MADISON        PTSUNNY   90  63  40 N5        29.84S HX  91
MIDDLETON      FAIR      93  53  25 NW5       29.86R HX  90
WATERTOWN      FAIR      83  68  59 CALM      29.85F HX  86
MONROE         FAIR      91  59  33 N7        29.86S HX  90
JANESVILLE     MOSUNNY   93  55  27 W5        29.85R HX  91
$$

WIZ051-052-058>065-066-070>072-280000-
SOUTHEAST WISCONSIN

CITY           SKY/WX    TMP DP  RH WIND       PRES   REMARKS
MILWAUKEE      PTSUNNY   76  65  68 CALM      29.87R
WAUKESHA       MOSUNNY   79  63  57 CALM      29.87F HX  80
MILWAUKEE/TIMM PTSUNNY   73  61  64 CALM      29.88S
RACINE         FAIR      81  64  56 SE8       29.88R HX  82
BURLINGTON     PTSUNNY   69  39  33 N12       29.86S
KENOSHA        FAIR      85  64  49 S9        29.86R HX  86
FOND DU LAC    FAIR      90  57  32 N8        29.84F HX  88
SHEBOYGAN      FAIR      85  67  54 S8        29.85F HX  87
WEST BEND      FAIR      81  64  57 CALM      29.86F HX  82
JUNEAU         FAIR      85  66  53 SE9       29.86F HX  87
$$

LSZ147-162-280000-
LAKE SUPERIOR

STATION/POSITION TIME  TEMP    WIND        PRES    WAVE
                       AIR SEA DIR/SP/G            HT/PER
                 (UTC) (F)     (DEG/KT/KT) (MB)    (FT/S)
W MID LAKE BUOY  2250   42 37   CALM  /  2 1011.0R   0
DEVILS ISLAND    2300   49     120/  9/ 10 1010.4F
SAXON HARBOR     2240   69     300/  2/  3 1009.8R
$$

LMZ867-665-643>646-280000-
LAKE MICHIGAN

STATION/POSITION TIME  TEMP    WIND        PRES    WAVE
                       AIR SEA DIR/SP/G            HT/PER
                 (UTC) (F)     (DEG/KT/KT) (MB)    (FT/S)
N MID LAKE BUOY  2300   42 38  190/  6/  8 1011.2
NORTHPORT PIER   2230   72     170/  3/  6 1010.2F
KEWAUNEE LAKESHO 2254   65     160/  5/  6 1010.5F
SHEBOYGAN LAKESH 2300   53     180/  4/  5 1010.9F
PORT WASHINGTON  2240   76     190/  5/  8 1011.9F
ATWATER BUOY     2237   69 55  130/  6/  8 1011.7R   1
MILWAUKEE LAKESH 2300   71     230/  3/  4   N/A
S MID LAKE BUOY  2250   62 47  130/  8/  8 1011.5R   0
KENOSHA   LAKESH 2300   72                 1010.8
$$

TC  - TEMPERATURE IN CELSIUS
VSB - VISIBILITY IN STATUTE MILES
WCI - WIND CHILL INDEX
HX  - HEAT INDEX




USA.gov is the U.S. government's official web portal to all federal, state and local government web resources and services.